Marion-Critt Cnty AP, Marion,, KY

3:44 PM CDT on April 25, 2017 (GMT -0500)
Marion-Critt Cnty AP, Marion,

Weather History for K5M9 - August, 2014

Change the Weather History Date:

Tuesday, August 26, 2014

  Actual Average (KEHR) Record (KEHR)
Temperature  
Mean Temperature 82 °F -  
Max Temperature 94 °F 88 °F 104 °F (1943)
Min Temperature 70 °F 64 °F 47 °F (1945)
Cooling Degree Days 16    
Growing Degree Days 32 (Base 50)    
Moisture  
Dew Point 73 °F    
Average Humidity 77    
Maximum Humidity 99    
Minimum Humidity 48    
Precipitation  
Precipitation 0.00 in - - ()
Sea Level Pressure  
Sea Level Pressure 30.08 in    
Wind  
Wind Speed 2 mph (East)    
Max Wind Speed 9 mph    
Max Gust Speed -    
Visibility 8 miles    
Events      
Averages and records for this station are not official NWS values.
T = Trace of Precipitation, MM = Missing Value Source: NWS Daily Summary

Daily Weather History Graph

Daily Weather History Graph

Search for Another Location

Airport or City:

Trip Planner

Search our weather history database for the weather conditions in past years. The results will help you decide how hot, cold, wet, or windy it might be!

Date:

Astronomy

Aug. 26, 2014 Rise Set
Actual Time 6:17 AM CDT 7:29 PM CDT
Civil Twilight 5:50 AM CDT 7:56 PM CDT
Nautical Twilight 5:18 AM CDT 8:28 PM CDT
Astronomical Twilight 4:45 AM CDT 9:02 PM CDT
Moon 7:15 AM CDT (8/26) 7:53 PM CDT (8/26)
Length of Visible Light 14h 05m
Length of Day
13h 11m
New Moon, 1% of the Moon is Illuminated
Aug 26
New Moon
Sep 2
First Quarter
Sep 8
Full
Sep 15
Last Quarter
Sep 24
New

Hourly Weather History & Observations

Time (CDT) Temp. Heat Index Dew Point Humidity Pressure Visibility Wind Dir Wind Speed Gust Speed Precip Events Conditions
12:15 AM 75.2 °F - 72.5 °F 91% 30.07 in 7.0 mi ENE 4.6 mph - N/A   Clear
12:35 AM 75.9 °F - 72.7 °F 90% 30.07 in 7.0 mi ENE 4.6 mph - N/A   Clear
12:55 AM 75.9 °F - 72.7 °F 90% 30.07 in 7.0 mi Calm Calm - N/A   Clear
1:15 AM 75.7 °F - 72.9 °F 91% 30.06 in 7.0 mi Calm Calm - N/A   Clear
1:35 AM 74.5 °F - 72.5 °F 94% 30.05 in 5.0 mi Calm Calm - N/A   Clear
1:55 AM 75.2 °F - 72.7 °F 92% 30.04 in 7.0 mi SSW 3.5 mph - N/A   Clear
2:15 AM 75.2 °F - 72.9 °F 92% 30.04 in 7.0 mi Calm Calm - N/A   Clear
2:35 AM 74.8 °F - 72.9 °F 94% 30.03 in 7.0 mi SSW 3.5 mph - N/A   Clear
2:55 AM 74.7 °F - 72.5 °F 93% 30.04 in 7.0 mi Calm Calm - N/A   Clear
3:15 AM 74.8 °F - 72.5 °F 92% 30.04 in 7.0 mi Calm Calm - N/A   Clear
3:35 AM 72.9 °F - 71.8 °F 96% 30.04 in 5.0 mi Calm Calm - N/A   Clear
3:55 AM 72.7 °F - 71.8 °F 97% 30.04 in 4.0 mi Calm Calm - N/A   Clear
4:15 AM 72.0 °F - 71.6 °F 99% 30.04 in 3.0 mi Calm Calm - N/A   Clear
4:35 AM 72.0 °F - 71.6 °F 99% 30.04 in 5.0 mi Calm Calm - N/A   Clear
4:55 AM 72.1 °F - 71.8 °F 99% 30.05 in 4.0 mi Calm Calm - N/A   Clear
5:15 AM 71.8 °F - 71.6 °F 99% 30.06 in 2.0 mi Calm Calm - N/A   Clear
5:35 AM 71.1 °F - 70.7 °F 99% 30.07 in 4.0 mi Calm Calm - N/A   Clear
5:55 AM 71.1 °F - 70.7 °F 99% 30.08 in 3.0 mi Calm Calm - N/A   Clear
6:15 AM 70.7 °F - 70.3 °F 99% 30.09 in 1.2 mi Calm Calm - N/A   Mist
6:35 AM 71.6 °F - 71.4 °F 99% 30.09 in 3.0 mi Calm Calm - N/A   Clear
6:55 AM 72.5 °F - 71.8 °F 98% 30.11 in 3.0 mi Calm Calm - N/A   Clear
7:15 AM 73.6 °F - 72.7 °F 97% 30.12 in 4.0 mi Calm Calm - N/A   Clear
7:35 AM 75.2 °F - 73.4 °F 94% 30.12 in 5.0 mi Calm Calm - N/A   Clear
7:55 AM 76.6 °F - 73.8 °F 91% 30.12 in 5.0 mi Calm Calm - N/A   Clear
8:15 AM 79.3 °F - 74.3 °F 84% 30.13 in 10.0 mi Calm Calm - N/A   Clear
8:55 AM 82.8 °F 89.0 °F 73.8 °F 74% 30.13 in 10.0 mi Calm Calm - N/A   Clear
9:55 AM 86.5 °F 93.3 °F 72.5 °F 63% 30.13 in 10.0 mi North 3.5 mph - N/A   Clear
10:15 AM 88.0 °F 95.1 °F 72.3 °F 60% 30.13 in 10.0 mi WNW 4.6 mph - N/A   Scattered Clouds
10:35 AM 87.8 °F 95.2 °F 73.0 °F 61% 30.13 in 10.0 mi West 3.5 mph - N/A   Scattered Clouds
10:55 AM 89.6 °F 97.2 °F 72.7 °F 57% 30.13 in 10.0 mi West 3.5 mph - N/A   Mostly Cloudy
11:15 AM 88.0 °F 94.7 °F 72.0 °F 59% 30.12 in 10.0 mi NNE 3.5 mph - N/A   Scattered Clouds
11:35 AM 90.3 °F 98.2 °F 72.5 °F 56% 30.11 in 10.0 mi ENE 5.8 mph - N/A   Scattered Clouds
11:55 AM 91.4 °F 99.5 °F 72.5 °F 54% 30.11 in 10.0 mi NW 3.5 mph - N/A   Mostly Cloudy
12:15 PM 90.0 °F 96.4 °F 71.4 °F 54% 30.11 in 10.0 mi North 3.5 mph - N/A   Mostly Cloudy
12:35 PM 89.1 °F 95.0 °F 71.2 °F 55% 30.11 in 10.0 mi Calm Calm - N/A   Mostly Cloudy
12:55 PM 92.1 °F 99.4 °F 71.8 °F 51% 30.10 in 10.0 mi NE 3.5 mph - N/A   Overcast
1:35 PM 93.4 °F 100.3 °F 70.9 °F 48% 30.09 in 10.0 mi East 3.5 mph - N/A   Mostly Cloudy
1:55 PM 91.4 °F 98.9 °F 72.0 °F 53% 30.09 in 10.0 mi ENE 6.9 mph - N/A   Mostly Cloudy
2:15 PM 89.6 °F 96.6 °F 72.1 °F 56% 30.08 in 10.0 mi ENE 5.8 mph - N/A   Scattered Clouds
2:35 PM 93.6 °F 101.9 °F 72.1 °F 50% 30.07 in 10.0 mi NE 9.2 mph - N/A   Scattered Clouds
2:55 PM 92.7 °F 99.4 °F 70.7 °F 49% 30.06 in 10.0 mi NE 5.8 mph - N/A   Scattered Clouds
3:15 PM 92.3 °F 99.7 °F 71.8 °F 51% 30.06 in 10.0 mi East 6.9 mph - N/A   Scattered Clouds
3:35 PM 91.9 °F 98.4 °F 70.9 °F 50% 30.05 in 10.0 mi ENE 6.9 mph - N/A   Scattered Clouds
3:55 PM 90.5 °F 99.7 °F 73.9 °F 58% 30.05 in 10.0 mi East 6.9 mph - N/A   Scattered Clouds
4:15 PM 91.6 °F 99.3 °F 72.1 °F 53% 30.05 in 10.0 mi East 5.8 mph - N/A   Clear
4:35 PM 92.7 °F 102.4 °F 73.6 °F 54% 30.05 in 10.0 mi ESE 6.9 mph - N/A   Scattered Clouds
4:55 PM 91.6 °F 100.5 °F 73.2 °F 55% 30.06 in 10.0 mi East 5.8 mph - N/A   Scattered Clouds
5:15 PM 90.0 °F 97.9 °F 72.9 °F 57% 30.06 in 10.0 mi ESE 4.6 mph - N/A   Scattered Clouds
5:35 PM 88.7 °F 96.2 °F 72.9 °F 59% 30.06 in 10.0 mi ENE 3.5 mph - N/A   Scattered Clouds
5:55 PM 89.8 °F 98.6 °F 73.8 °F 59% 30.06 in 10.0 mi ESE 5.8 mph - N/A   Mostly Cloudy
6:15 PM 87.1 °F 94.9 °F 73.8 °F 64% 30.06 in 10.0 mi SE 3.5 mph - N/A   Scattered Clouds
6:35 PM 86.0 °F 94.2 °F 74.1 °F 68% 30.06 in 10.0 mi Calm Calm - N/A   Clear
6:55 PM 85.3 °F 92.6 °F 73.8 °F 68% 30.06 in 10.0 mi Calm Calm - N/A   Clear
7:15 PM 84.6 °F 92.1 °F 74.3 °F 71% 30.06 in 10.0 mi Calm Calm - N/A   Clear
7:35 PM 82.8 °F 89.2 °F 74.3 °F 75% 30.06 in 10.0 mi East 3.5 mph - N/A   Clear
7:55 PM 82.0 °F 88.1 °F 74.3 °F 77% 30.07 in 10.0 mi East 4.6 mph - N/A   Clear
8:15 PM 80.6 °F 85.5 °F 73.9 °F 80% 30.07 in 10.0 mi Calm Calm - N/A   Clear
8:35 PM 80.1 °F 84.6 °F 74.3 °F 82% 30.07 in 7.0 mi SE 4.6 mph - N/A   Clear
8:55 PM 80.2 °F 85.0 °F 74.3 °F 82% 30.07 in 10.0 mi Calm Calm - N/A   Clear
9:15 PM 79.7 °F - 73.9 °F 82% 30.08 in 10.0 mi Calm Calm - N/A   Clear
9:35 PM 79.3 °F - 73.9 °F 83% 30.08 in 7.0 mi Calm Calm - N/A   Clear
9:55 PM 78.3 °F - 73.8 °F 86% 30.09 in 7.0 mi Calm Calm - N/A   Clear
10:15 PM 78.8 °F - 73.8 °F 84% 30.09 in 7.0 mi SSW 3.5 mph - N/A   Clear
10:35 PM 78.8 °F - 73.8 °F 84% 30.09 in 7.0 mi Calm Calm - N/A   Clear
10:55 PM 76.3 °F - 73.4 °F 91% 30.09 in 7.0 mi South 4.6 mph - N/A   Clear
11:15 PM 77.0 °F - 73.4 °F 89% 30.09 in 7.0 mi Calm Calm - N/A   Clear
11:35 PM 76.8 °F - 73.4 °F 89% 30.09 in 7.0 mi SW 3.5 mph - N/A   Clear
11:55 PM 75.9 °F - 73.4 °F 92% 30.08 in 5.0 mi SSW 3.5 mph - N/A   Clear